This is the latest recevied weather packets stored in our database for station/object WA1OUI. If no packets are shown the sender has not sent any weather packets the latest 10 day(s).
| Time | Temp. | Humidity | Pressure | Rain* | Wind** | Luminosity | Snow |
|---|---|---|---|---|---|---|---|
| 1777231544 | 17.22° C | 42% | 1017.3 hPa | 0 mm | - | 534 W/m² | - |
| 1777231240 | 17.22° C | 44% | 1017.5 hPa | 0 mm | - | 550 W/m² | - |
| 1777230936 | 17.22° C | 42% | 1017.4 hPa | 0 mm | - | 555 W/m² | - |
| 1777230632 | 16.67° C | 42% | 1017.7 hPa | 0 mm | - | 563 W/m² | - |
| 1777230327 | 16.67° C | 43% | 1017.5 hPa | 0 mm | - | 599 W/m² | - |
| 1777230025 | 16.11° C | 44% | 1017.5 hPa | 0 mm | - | 262 W/m² | - |
| 1777229721 | 16.11° C | 43% | 1017.8 hPa | 0 mm | - | 615 W/m² | - |
| 1777229418 | 16.11° C | 46% | 1017.7 hPa | 0 mm | - | 646 W/m² | - |
| 1777229115 | 16.11° C | 45% | 1017.7 hPa | 0 mm | - | 204 W/m² | - |
| 1777228812 | 16.11° C | 45% | 1017.8 hPa | 0 mm | - | 526 W/m² | - |
| 1777228508 | 15.56° C | 46% | 1017.8 hPa | 0 mm | - | 655 W/m² | - |
| 1777228203 | 15.56° C | 50% | 1017.9 hPa | 0 mm | - | 662 W/m² | - |
| 1777227903 | 15.56° C | 49% | 1017.7 hPa | 0 mm | - | 669 W/m² | - |
| 1777227599 | 15.56° C | 47% | 1018 hPa | 0 mm | - | 484 W/m² | - |
| 1777227295 | 15.56° C | 48% | 1017.9 hPa | 0 mm | - | 690 W/m² | - |
| 1777226992 | 15° C | 50% | 1017.9 hPa | 0 mm | - | 724 W/m² | - |
| 1777226690 | 15.56° C | 49% | 1018 hPa | 0 mm | - | 87 W/m² | - |
| 1777226386 | 15° C | 50% | 1017.9 hPa | 0 mm | - | 762 W/m² | - |
| 1777226082 | 14.44° C | 52% | 1018 hPa | 0 mm | - | 756 W/m² | - |
| 1777225778 | 13.89° C | 55% | 1018.1 hPa | 0 mm | - | 275 W/m² | - |
| 1777225475 | 13.89° C | 51% | 1018.1 hPa | 0 mm | - | 130 W/m² | - |
| 1777225172 | 13.89° C | 52% | 1018.2 hPa | 0 mm | - | 817 W/m² | - |
| 1777224868 | 13.89° C | 53% | 1018.1 hPa | 0 mm | - | 282 W/m² | - |
| 1777224564 | 13.89° C | 53% | 1018.1 hPa | 0 mm | - | 845 W/m² | - |
| 1777224260 | 14.44° C | 53% | 1018.2 hPa | 0 mm | - | 388 W/m² | - |
* Rain latest hour (hover to see other rain measurements)
** Current wind speed in m/s (hover to see current wind gust speed)